TimeEEST,TemperatureF,Dew PointF,Humidity,Sea Level PressureIn,VisibilityMPH,Wind Direction,Wind SpeedMPH,Gust SpeedMPH,PrecipitationIn,Events,Conditions,WindDirDegrees,DateUTC
12:20 AM,71.6,66.2,83,29.92,5.0,Calm,Calm,-,N/A,,Partly Cloudy,0,2012-10-05 21:20:00
12:50 AM,71.6,66.2,83,29.92,5.0,Calm,Calm,-,N/A,,Partly Cloudy,0,2012-10-05 21:50:00
1:20 AM,71.6,66.2,83,29.92,5.0,Calm,Calm,-,N/A,,Partly Cloudy,0,2012-10-05 22:20:00
1:50 AM,69.8,64.4,83,29.92,5.0,Calm,Calm,-,N/A,,Partly Cloudy,0,2012-10-05 22:50:00
2:20 AM,69.8,64.4,83,29.92,5.0,Calm,Calm,-,N/A,,Partly Cloudy,0,2012-10-05 23:20:00
2:50 AM,69.8,64.4,83,29.92,5.0,Calm,Calm,-,N/A,,Partly Cloudy,0,2012-10-05 23:50:00
3:00 AM,69,64,81,29.93,5,Calm,Calm,,,,Mist,,2012-10-06 00:00:00
3:20 AM,69.8,64.4,83,29.92,5.0,Calm,Calm,-,N/A,,Partly Cloudy,0,2012-10-06 00:20:00
3:50 AM,68.0,62.6,83,29.92,5.0,Calm,Calm,-,N/A,,Partly Cloudy,0,2012-10-06 00:50:00
4:20 AM,68.0,62.6,83,29.92,5.0,Calm,Calm,-,N/A,,Partly Cloudy,0,2012-10-06 01:20:00
4:50 AM,68.0,62.6,83,29.92,5.0,Calm,Calm,-,N/A,,Partly Cloudy,0,2012-10-06 01:50:00
5:20 AM,68.0,62.6,83,29.92,5.0,Calm,Calm,-,N/A,,Partly Cloudy,0,2012-10-06 02:20:00
5:50 AM,68.0,57.2,68,29.92,5.0,Calm,Calm,-,N/A,,Partly Cloudy,0,2012-10-06 02:50:00
6:20 AM,68.0,57.2,68,29.92,5.0,Calm,Calm,-,N/A,,Partly Cloudy,0,2012-10-06 03:20:00
6:50 AM,69.8,66.2,88,29.92,5.0,Calm,Calm,-,N/A,,Unknown,0,2012-10-06 03:50:00
7:20 AM,69.8,66.2,88,29.92,5.0,Calm,Calm,-,N/A,,Unknown,0,2012-10-06 04:20:00
7:50 AM,69.8,66.2,88,29.92,5.0,Variable,3.5,-,N/A,,Unknown,0,2012-10-06 04:50:00
8:20 AM,69.8,66.2,88,29.92,-9999.0,Variable,3.5,-,N/A,,Clear,0,2012-10-06 05:20:00
8:50 AM,73.4,68.0,83,29.95,-9999.0,Calm,Calm,-,N/A,,Clear,0,2012-10-06 05:50:00
9:00 AM,73,68,79,29.96,6,Calm,Calm,,,,,,2012-10-06 06:00:00
9:20 AM,73.4,68.0,83,29.95,-9999.0,Variable,3.5,-,N/A,,Clear,0,2012-10-06 06:20:00
9:50 AM,75.2,68.0,78,29.95,-9999.0,West,3.5,-,N/A,,Clear,260,2012-10-06 06:50:00
10:20 AM,75.2,68.0,78,29.95,-9999.0,West,4.6,-,N/A,,Clear,260,2012-10-06 07:20:00
10:50 AM,77.0,68.0,74,29.95,-9999.0,West,4.6,-,N/A,,Clear,260,2012-10-06 07:50:00
11:20 AM,77.0,68.0,74,29.95,-9999.0,West,5.8,-,N/A,,Clear,260,2012-10-06 08:20:00
11:50 AM,78.8,68.0,69,29.95,-9999.0,West,8.1,-,N/A,,Clear,270,2012-10-06 08:50:00
12:20 PM,78.8,68.0,69,29.95,-9999.0,West,8.1,-,N/A,,Clear,270,2012-10-06 09:20:00
12:50 PM,80.6,66.2,61,29.95,-9999.0,West,9.2,-,N/A,,Clear,260,2012-10-06 09:50:00
1:20 PM,80.6,66.2,61,29.95,-9999.0,West,5.8,-,N/A,,Clear,260,2012-10-06 10:20:00
1:50 PM,80.6,66.2,61,29.95,6.2,West,9.2,-,N/A,,Partly Cloudy,260,2012-10-06 10:50:00
2:20 PM,80.6,66.2,61,29.95,6.2,WSW,9.2,-,N/A,,Partly Cloudy,250,2012-10-06 11:20:00
2:50 PM,82.4,68.0,62,29.95,6.2,West,9.2,-,N/A,,Partly Cloudy,270,2012-10-06 11:50:00
3:00 PM,82,67,53,29.96,6,West,9.2,,,,Scattered Clouds,270,2012-10-06 12:00:00
3:20 PM,82.4,68.0,62,29.95,6.2,West,10.4,-,N/A,,Partly Cloudy,260,2012-10-06 12:20:00
3:50 PM,80.6,69.8,70,29.95,6.2,WSW,12.7,-,N/A,,Partly Cloudy,240,2012-10-06 12:50:00
4:20 PM,80.6,69.8,70,29.95,6.2,WSW,12.7,-,N/A,,Partly Cloudy,240,2012-10-06 13:20:00
4:50 PM,80.6,66.2,61,29.95,6.2,WSW,13.8,-,N/A,,Partly Cloudy,240,2012-10-06 13:50:00
5:20 PM,78.8,68.0,69,29.92,6.2,WSW,15.0,-,N/A,,Partly Cloudy,240,2012-10-06 14:20:00
5:50 PM,78.8,66.2,65,29.92,6.2,WSW,12.7,-,N/A,,Partly Cloudy,240,2012-10-06 14:50:00
6:20 PM,77.0,68.0,74,29.95,6.2,SW,12.7,-,N/A,,Partly Cloudy,230,2012-10-06 15:20:00
6:50 PM,77.0,68.0,74,29.95,6.2,WSW,10.4,-,N/A,,Partly Cloudy,240,2012-10-06 15:50:00
7:20 PM,75.2,68.0,78,29.95,6.2,SW,10.4,-,N/A,,Partly Cloudy,230,2012-10-06 16:20:00
7:50 PM,75.2,69.8,83,29.95,6.2,SW,9.2,-,N/A,,Partly Cloudy,220,2012-10-06 16:50:00
8:20 PM,75.2,69.8,83,29.95,6.2,SW,9.2,-,N/A,,Partly Cloudy,220,2012-10-06 17:20:00
8:50 PM,75.2,69.8,83,29.98,6.2,SW,8.1,-,N/A,,Partly Cloudy,220,2012-10-06 17:50:00
9:00 PM,74,70,84,29.98,6,SW,8.1,,,,Scattered Clouds,220,2012-10-06 18:00:00
9:20 PM,75.2,69.8,83,29.98,6.2,SW,8.1,-,N/A,,Partly Cloudy,220,2012-10-06 18:20:00
9:50 PM,73.4,68.0,83,29.95,6.2,SSW,6.9,-,N/A,,Partly Cloudy,210,2012-10-06 18:50:00
10:50 PM,73.4,68.0,83,29.95,6.2,SSW,4.6,-,N/A,,Partly Cloudy,200,2012-10-06 19:50:00
11:20 PM,73.4,68.0,83,29.95,6.2,SSW,3.5,-,N/A,,Partly Cloudy,200,2012-10-06 20:20:00
11:50 PM,73.4,68.0,83,29.95,6.2,SSW,3.5,-,N/A,,Partly Cloudy,200,2012-10-06 20:50:00